STARLINK-1436 (45713 NORAD) Tracking and Keplerian Element Data

This shows tracking and keplerian element data for the satellite.

Feedback or suggestion? Click here.




ElementValue
Catalog45713
NameSTARLINK-1436
Epoch Orbit552
Epoch Day185.50001157
Epoch Year2020
RAAN24.9669
Inclination52.9996
Eccentricity0.0001321
Argument of Perigee56.4003
Mean Anonmoly11.7886
Mean Motion15.62764647
Decay Rate-0.00045405
L11 45713U 20035BJ 20185.50001157 -.00045405 00000-0 -49257-3 0 9995
L22 45713 52.9996 24.9669 0001321 56.4003 11.7886 15.62764647 5524

Live tracking and technical data element details for STARLINK-1436 (NORAD 45713). STARLINK-1436 can be tracked NOW for your location showing map with azimuth and elevation plus other details from your city location.

Track the satellite on the map from your city or location and see movement details for azimuth, elevation, latitude, longitude, range, height, and movement on the map or in text.







IsCatalogInMostPopularTable: catalog: 45713, numindb: 7
Update: records affected: 1



GetName: 45713 STARLINK-1436

Hit Count: updated at: Sat, 04 Jul 2020 01:53:28 GMT